Time,TemperatureF,DewpointF,PressureIn,WindDirection,WindDirectionDegrees,WindSpeedMPH,WindSpeedGustMPH,Humidity,HourlyPrecipIn,Conditions,Clouds,dailyrainin,SoftwareType,DateUTC
2013-03-11 00:02:00,35.0,32.0,30.25,SSW,196,9.0,18.0,88,0.00,,,0.00,,2013-03-11 04:02:00,
2013-03-11 00:12:00,35.0,32.0,30.25,SSW,196,9.0,18.0,88,0.00,,,0.00,,2013-03-11 04:12:00,
2013-03-11 00:22:00,35.0,32.0,30.26,SSW,205,12.0,18.0,88,0.00,,,0.00,,2013-03-11 04:22:00,
2013-03-11 00:32:00,36.0,33.0,30.27,SW,236,12.0,20.0,88,0.00,,,0.00,,2013-03-11 04:32:00,
2013-03-11 00:43:00,36.0,33.0,30.27,SW,236,12.0,20.0,88,0.00,,,0.00,,2013-03-11 04:43:00,
2013-03-11 00:53:00,36.0,33.0,30.28,SW,217,11.0,19.0,88,0.00,,,0.00,,2013-03-11 04:53:00,
2013-03-11 01:03:00,35.0,32.0,30.28,SSW,211,10.0,17.0,88,0.00,,,0.00,,2013-03-11 05:03:00,
2013-03-11 01:12:00,35.0,32.0,30.28,SSW,211,10.0,17.0,88,0.00,,,0.00,,2013-03-11 05:12:00,
2013-03-11 01:22:00,36.0,33.0,30.27,SW,227,10.0,17.0,88,0.00,,,0.00,,2013-03-11 05:22:00,
2013-03-11 01:32:00,36.0,33.0,30.27,SW,222,8.0,18.0,88,0.00,,,0.00,,2013-03-11 05:32:00,
2013-03-11 01:43:00,36.0,33.0,30.27,SW,222,8.0,18.0,88,0.00,,,0.00,,2013-03-11 05:43:00,
2013-03-11 01:52:00,36.0,33.0,30.27,SW,222,11.0,19.0,88,0.00,,,0.00,,2013-03-11 05:52:00,
2013-03-11 02:02:00,36.0,33.0,30.27,SSW,213,12.0,17.0,88,0.00,,,0.00,,2013-03-11 06:02:00,
2013-03-11 02:12:00,36.0,33.0,30.27,SSW,213,12.0,17.0,88,0.00,,,0.00,,2013-03-11 06:12:00,
2013-03-11 02:22:00,36.0,33.0,30.26,SW,218,10.0,18.0,89,0.00,,,0.00,,2013-03-11 06:22:00,
2013-03-11 02:32:00,36.0,33.0,30.26,SW,236,10.0,18.0,89,0.00,,,0.00,,2013-03-11 06:32:00,
2013-03-11 02:42:00,36.0,33.0,30.26,SW,236,10.0,18.0,89,0.00,,,0.00,,2013-03-11 06:42:00,
2013-03-11 02:53:00,37.0,34.0,30.26,WSW,240,11.0,18.0,89,0.00,,,0.00,,2013-03-11 06:53:00,
2013-03-11 03:03:00,37.0,34.0,30.27,WSW,238,13.0,21.0,89,0.00,,,0.00,,2013-03-11 07:03:00,
2013-03-11 03:12:00,37.0,34.0,30.27,WSW,238,13.0,21.0,89,0.00,,,0.00,,2013-03-11 07:12:00,
2013-03-11 03:22:00,37.0,34.0,30.25,SW,225,12.0,18.0,90,0.00,,,0.00,,2013-03-11 07:22:00,
2013-03-11 03:32:00,37.0,34.0,30.25,SW,236,12.0,18.0,90,0.00,,,0.00,,2013-03-11 07:32:00,
2013-03-11 03:42:00,37.0,34.0,30.25,SW,236,12.0,18.0,90,0.00,,,0.00,,2013-03-11 07:42:00,
2013-03-11 03:52:00,37.0,34.0,30.25,WSW,246,14.0,23.0,90,0.00,,,0.00,,2013-03-11 07:52:00,
2013-03-11 04:02:00,37.0,34.0,30.24,WSW,238,12.0,18.0,90,0.00,,,0.00,,2013-03-11 08:02:00,
2013-03-11 04:12:00,37.0,34.0,30.24,WSW,238,12.0,18.0,90,0.00,,,0.00,,2013-03-11 08:12:00,
2013-03-11 04:22:00,37.0,34.0,30.24,SW,232,14.0,22.0,89,0.00,,,0.00,,2013-03-11 08:22:00,
2013-03-11 04:32:00,37.0,34.0,30.23,SW,231,11.0,18.0,89,0.00,,,0.00,,2013-03-11 08:32:00,
2013-03-11 04:42:00,37.0,34.0,30.23,SW,231,11.0,18.0,89,0.00,,,0.00,,2013-03-11 08:42:00,
2013-03-11 04:52:00,38.0,35.0,30.22,SW,229,9.0,19.0,89,0.00,,,0.00,,2013-03-11 08:52:00,
2013-03-11 05:02:00,37.0,34.0,30.21,SW,223,12.0,21.0,89,0.00,,,0.00,,2013-03-11 09:02:00,
2013-03-11 05:12:00,37.0,34.0,30.21,SW,223,12.0,21.0,89,0.00,,,0.00,,2013-03-11 09:12:00,
2013-03-11 05:23:00,38.0,35.0,30.21,SW,214,11.0,20.0,89,0.00,,,0.00,,2013-03-11 09:23:00,
2013-03-11 05:32:00,38.0,35.0,30.22,SW,229,9.0,20.0,89,0.00,,,0.00,,2013-03-11 09:32:00,
2013-03-11 05:42:00,38.0,35.0,30.22,SW,229,9.0,20.0,89,0.00,,,0.00,,2013-03-11 09:42:00,
2013-03-11 05:52:00,38.0,35.0,30.20,SW,232,10.0,18.0,90,0.00,,,0.00,,2013-03-11 09:52:00,
2013-03-11 06:02:00,38.0,35.0,30.20,South,185,10.0,20.0,90,0.00,,,0.00,,2013-03-11 10:02:00,
2013-03-11 06:12:00,38.0,35.0,30.20,South,185,10.0,20.0,90,0.00,,,0.00,,2013-03-11 10:12:00,
2013-03-11 06:22:00,38.0,35.0,30.20,SW,232,12.0,20.0,90,0.00,,,0.00,,2013-03-11 10:22:00,
2013-03-11 06:32:00,38.0,35.0,30.20,SSW,212,9.0,22.0,89,0.00,,,0.00,,2013-03-11 10:32:00,
2013-03-11 06:42:00,38.0,35.0,30.20,SSW,212,9.0,22.0,89,0.00,,,0.00,,2013-03-11 10:42:00,
2013-03-11 06:52:00,38.0,35.0,30.20,WSW,241,14.0,22.0,90,0.00,,,0.00,,2013-03-11 10:52:00,
2013-03-11 07:02:00,38.0,35.0,30.21,SSW,207,11.0,21.0,90,0.00,,,0.00,,2013-03-11 11:02:00,
2013-03-11 07:12:00,38.0,35.0,30.21,SSW,207,11.0,21.0,90,0.00,,,0.00,,2013-03-11 11:12:00,
2013-03-11 07:22:00,38.0,35.0,30.20,SW,215,11.0,18.0,90,0.00,,,0.00,,2013-03-11 11:22:00,
2013-03-11 07:33:00,38.0,35.0,30.21,SW,232,8.0,18.0,90,0.00,,,0.00,,2013-03-11 11:33:00,
2013-03-11 07:42:00,38.0,35.0,30.21,SW,232,8.0,18.0,90,0.00,,,0.00,,2013-03-11 11:42:00,
2013-03-11 07:53:00,38.0,35.0,30.20,SSW,209,11.0,20.0,90,0.00,,,0.00,,2013-03-11 11:53:00,
2013-03-11 08:02:00,38.0,35.0,30.20,SSW,203,10.0,18.0,90,0.00,,,0.00,,2013-03-11 12:02:00,
2013-03-11 08:12:00,38.0,35.0,30.20,SSW,203,10.0,18.0,90,0.00,,,0.00,,2013-03-11 12:12:00,
2013-03-11 08:22:00,38.0,36.0,30.22,SW,221,11.0,17.0,91,0.00,,,0.00,,2013-03-11 12:22:00,
2013-03-11 08:32:00,38.0,36.0,30.23,SW,214,8.0,15.0,91,0.00,,,0.00,,2013-03-11 12:32:00,
2013-03-11 08:43:00,38.0,36.0,30.23,SW,214,8.0,15.0,91,0.00,,,0.00,,2013-03-11 12:43:00,
2013-03-11 08:53:00,39.0,37.0,30.23,SW,217,9.0,14.0,91,0.00,,,0.00,,2013-03-11 12:53:00,
2013-03-11 09:02:00,39.0,37.0,30.24,SW,223,8.0,16.0,91,0.00,,,0.00,,2013-03-11 13:02:00,
2013-03-11 09:12:00,39.0,37.0,30.24,SW,223,8.0,16.0,91,0.00,,,0.00,,2013-03-11 13:12:00,
2013-03-11 09:22:00,39.0,37.0,30.25,SSW,200,8.0,14.0,91,0.00,,,0.00,,2013-03-11 13:22:00,
2013-03-11 09:32:00,39.0,37.0,30.24,SW,219,12.0,17.0,91,0.00,,,0.00,,2013-03-11 13:32:00,
2013-03-11 09:42:00,39.0,37.0,30.24,SW,219,12.0,17.0,91,0.00,,,0.00,,2013-03-11 13:42:00,
2013-03-11 09:53:00,39.0,37.0,30.25,SW,221,9.0,14.0,91,0.00,,,0.00,,2013-03-11 13:53:00,
2013-03-11 10:02:00,39.0,37.0,30.24,SSW,208,7.0,15.0,91,0.00,,,0.00,,2013-03-11 14:02:00,
2013-03-11 10:12:00,39.0,37.0,30.24,SSW,208,7.0,15.0,91,0.00,,,0.00,,2013-03-11 14:12:00,
2013-03-11 10:22:00,39.0,37.0,30.22,SSW,208,11.0,17.0,92,0.00,,,0.00,,2013-03-11 14:22:00,
2013-03-11 10:33:00,39.0,37.0,30.23,SSW,209,8.0,14.0,91,0.00,,,0.00,,2013-03-11 14:33:00,
2013-03-11 10:42:00,39.0,37.0,30.23,SSW,209,8.0,14.0,91,0.00,,,0.00,,2013-03-11 14:42:00,
2013-03-11 10:53:00,40.0,38.0,30.23,SW,217,9.0,17.0,91,0.00,,,0.00,,2013-03-11 14:53:00,
2013-03-11 11:02:00,40.0,38.0,30.23,SSW,213,7.0,16.0,91,0.00,,,0.00,,2013-03-11 15:02:00,
2013-03-11 11:13:00,40.0,38.0,30.23,SSW,213,7.0,16.0,91,0.00,,,0.00,,2013-03-11 15:13:00,
2013-03-11 11:22:00,40.0,38.0,30.22,South,173,9.0,17.0,91,0.00,,,0.00,,2013-03-11 15:22:00,
2013-03-11 11:32:00,41.0,38.0,30.21,South,187,9.0,15.0,90,0.00,,,0.00,,2013-03-11 15:32:00,
2013-03-11 11:42:00,41.0,38.0,30.21,South,187,9.0,15.0,90,0.00,,,0.00,,2013-03-11 15:42:00,
2013-03-11 11:53:00,40.0,37.0,30.21,SSW,199,9.0,14.0,90,0.00,,,0.00,,2013-03-11 15:53:00,
2013-03-11 12:02:00,41.0,38.0,30.21,SW,217,9.0,18.0,89,0.00,,,0.00,,2013-03-11 16:02:00,
2013-03-11 12:13:00,41.0,38.0,30.21,SW,217,9.0,18.0,89,0.00,,,0.00,,2013-03-11 16:13:00,
2013-03-11 12:22:00,41.0,38.0,30.21,SSW,213,8.0,15.0,88,0.00,,,0.00,,2013-03-11 16:22:00,
2013-03-11 12:32:00,41.0,38.0,30.22,SSW,203,9.0,16.0,89,0.00,,,0.00,,2013-03-11 16:32:00,
2013-03-11 12:43:00,41.0,38.0,30.22,SSW,203,9.0,16.0,89,0.00,,,0.00,,2013-03-11 16:43:00,
2013-03-11 12:52:00,40.0,37.0,30.22,SW,216,11.0,16.0,89,0.00,,,0.00,,2013-03-11 16:52:00,
2013-03-11 13:02:00,40.0,37.0,30.22,SSW,206,9.0,17.0,89,0.00,,,0.00,,2013-03-11 17:02:00,
2013-03-11 13:15:00,40.0,37.0,30.22,SSW,206,9.0,17.0,89,0.00,,,0.00,,2013-03-11 17:15:00,
2013-03-11 13:27:00,41.0,38.0,30.21,SSW,204,8.0,14.0,89,0.00,,,0.00,,2013-03-11 17:27:00,
2013-03-11 13:36:00,41.0,38.0,30.21,SW,215,11.0,17.0,89,0.00,,,0.00,,2013-03-11 17:36:00,
2013-03-11 13:42:00,41.0,38.0,30.21,SW,215,11.0,17.0,89,0.00,,,0.00,,2013-03-11 17:42:00,
2013-03-11 13:53:00,41.0,38.0,30.20,SSW,196,10.0,17.0,88,0.00,,,0.00,,2013-03-11 17:53:00,
2013-03-11 14:02:00,41.0,38.0,30.19,SSW,209,11.0,18.0,88,0.00,,,0.00,,2013-03-11 18:02:00,
2013-03-11 14:12:00,41.0,38.0,30.19,SSW,209,11.0,18.0,88,0.00,,,0.00,,2013-03-11 18:12:00,
2013-03-11 14:23:00,41.0,38.0,30.19,SSW,209,11.0,18.0,88,0.00,,,0.00,,2013-03-11 18:23:00,
2013-03-11 14:32:00,40.0,37.0,30.20,SSW,202,11.0,18.0,89,0.00,,,0.00,,2013-03-11 18:32:00,
2013-03-11 14:42:00,40.0,37.0,30.20,SSW,202,11.0,18.0,89,0.00,,,0.00,,2013-03-11 18:42:00,
2013-03-11 14:53:00,40.0,37.0,30.19,SSW,200,11.0,16.0,90,0.00,,,0.00,,2013-03-11 18:53:00,
2013-03-11 15:02:00,40.0,37.0,30.19,SSW,201,10.0,17.0,90,0.00,,,0.00,,2013-03-11 19:02:00,
2013-03-11 15:12:00,40.0,37.0,30.19,SSW,201,10.0,17.0,90,0.00,,,0.00,,2013-03-11 19:12:00,
2013-03-11 15:23:00,40.0,37.0,30.19,South,188,11.0,18.0,90,0.00,,,0.00,,2013-03-11 19:23:00,
2013-03-11 15:33:00,40.0,37.0,30.19,SSW,200,10.0,22.0,89,0.00,,,0.00,,2013-03-11 19:33:00,
2013-03-11 15:42:00,40.0,37.0,30.19,SSW,200,10.0,22.0,89,0.00,,,0.00,,2013-03-11 19:42:00,
2013-03-11 15:53:00,40.0,37.0,30.19,WSW,238,10.0,18.0,90,0.00,,,0.00,,2013-03-11 19:53:00,
2013-03-11 16:02:00,40.0,37.0,30.19,SW,222,11.0,16.0,90,0.00,,,0.00,,2013-03-11 20:02:00,
2013-03-11 16:12:00,40.0,37.0,30.19,SW,222,11.0,16.0,90,0.00,,,0.00,,2013-03-11 20:12:00,
2013-03-11 16:22:00,40.0,38.0,30.19,South,188,10.0,19.0,91,0.00,,,0.00,,2013-03-11 20:22:00,
2013-03-11 16:32:00,40.0,38.0,30.18,SSW,213,10.0,20.0,91,0.00,,,0.00,,2013-03-11 20:32:00,
2013-03-11 16:43:00,40.0,38.0,30.18,SSW,213,10.0,20.0,91,0.00,,,0.00,,2013-03-11 20:43:00,
2013-03-11 16:53:00,39.0,37.0,30.18,SSW,213,11.0,19.0,91,0.00,,,0.00,,2013-03-11 20:53:00,
2013-03-11 17:03:00,39.0,37.0,30.17,South,186,12.0,23.0,91,0.00,,,0.00,,2013-03-11 21:03:00,
2013-03-11 17:13:00,39.0,37.0,30.17,South,186,12.0,23.0,91,0.00,,,0.00,,2013-03-11 21:13:00,
2013-03-11 17:22:00,39.0,37.0,30.17,SSW,199,11.0,19.0,91,0.00,,,0.00,,2013-03-11 21:22:00,
2013-03-11 17:32:00,39.0,37.0,30.17,SSW,202,11.0,19.0,92,0.00,,,0.00,,2013-03-11 21:32:00,
2013-03-11 17:44:00,39.0,37.0,30.17,SSW,202,11.0,19.0,92,0.00,,,0.00,,2013-03-11 21:44:00,
2013-03-11 17:53:00,39.0,37.0,30.17,SSW,206,9.0,16.0,92,0.00,,,0.00,,2013-03-11 21:53:00,
2013-03-11 18:03:00,39.0,37.0,30.17,SSW,192,10.0,21.0,92,0.00,,,0.00,,2013-03-11 22:03:00,
2013-03-11 18:12:00,39.0,37.0,30.17,SSW,192,10.0,21.0,92,0.00,,,0.00,,2013-03-11 22:12:00,
2013-03-11 18:22:00,39.0,37.0,30.17,South,187,11.0,16.0,93,0.00,,,0.00,,2013-03-11 22:22:00,
2013-03-11 18:32:00,39.0,37.0,30.17,SW,229,10.0,22.0,93,0.00,,,0.00,,2013-03-11 22:32:00,
2013-03-11 18:43:00,39.0,37.0,30.17,SW,229,10.0,22.0,93,0.00,,,0.00,,2013-03-11 22:43:00,
2013-03-11 18:53:00,39.0,37.0,30.17,SSW,201,12.0,22.0,93,0.00,,,0.00,,2013-03-11 22:53:00,
2013-03-11 19:03:00,39.0,37.0,30.17,SSW,205,9.0,23.0,93,0.00,,,0.00,,2013-03-11 23:03:00,
2013-03-11 19:12:00,39.0,37.0,30.17,SSW,205,9.0,23.0,93,0.00,,,0.00,,2013-03-11 23:12:00,
2013-03-11 19:22:00,39.0,37.0,30.17,SW,214,10.0,22.0,93,0.00,,,0.00,,2013-03-11 23:22:00,
2013-03-11 19:32:00,39.0,37.0,30.17,SSW,202,16.0,24.0,94,0.00,,,0.00,,2013-03-11 23:32:00,
2013-03-11 19:43:00,39.0,37.0,30.17,SSW,202,16.0,24.0,94,0.00,,,0.00,,2013-03-11 23:43:00,
2013-03-11 19:54:00,39.0,37.0,30.17,SW,225,14.0,24.0,93,0.00,,,0.00,,2013-03-11 23:54:00,
2013-03-11 20:02:00,39.0,37.0,30.17,SW,218,12.0,20.0,93,0.00,,,0.00,,2013-03-12 00:02:00,
2013-03-11 20:12:00,39.0,37.0,30.17,SW,218,12.0,20.0,93,0.00,,,0.00,,2013-03-12 00:12:00,
2013-03-11 20:23:00,39.0,37.0,30.17,SSW,207,12.0,22.0,93,0.00,,,0.00,,2013-03-12 00:23:00,
2013-03-11 20:33:00,39.0,37.0,30.17,SW,233,12.0,21.0,93,0.00,,,0.00,,2013-03-12 00:33:00,
2013-03-11 20:42:00,39.0,37.0,30.17,SW,233,12.0,21.0,93,0.00,,,0.00,,2013-03-12 00:42:00,
2013-03-11 20:54:00,39.0,37.0,30.17,SW,219,12.0,18.0,94,0.00,,,0.00,,2013-03-12 00:54:00,
2013-03-11 21:02:00,39.0,37.0,30.17,SSW,208,11.0,17.0,94,0.00,,,0.00,,2013-03-12 01:02:00,
2013-03-11 21:12:00,39.0,37.0,30.17,SSW,208,11.0,17.0,94,0.00,,,0.00,,2013-03-12 01:12:00,
2013-03-11 21:22:00,39.0,37.0,30.16,SSW,210,10.0,18.0,94,0.00,,,0.00,,2013-03-12 01:22:00,
2013-03-11 21:33:00,40.0,38.0,30.17,South,190,11.0,17.0,94,0.00,,,0.00,,2013-03-12 01:33:00,
2013-03-11 21:42:00,40.0,38.0,30.17,South,190,11.0,17.0,94,0.00,,,0.00,,2013-03-12 01:42:00,
2013-03-11 21:53:00,40.0,39.0,30.17,SSW,209,9.0,18.0,95,0.00,,,0.00,,2013-03-12 01:53:00,
2013-03-11 22:02:00,40.0,39.0,30.17,SSW,192,9.0,15.0,95,0.00,,,0.00,,2013-03-12 02:02:00,
2013-03-11 22:12:00,40.0,39.0,30.17,SSW,192,9.0,15.0,95,0.00,,,0.00,,2013-03-12 02:12:00,
2013-03-11 22:22:00,39.0,38.0,30.17,SSW,210,10.0,20.0,95,0.00,,,0.00,,2013-03-12 02:22:00,
2013-03-11 22:32:00,39.0,38.0,30.17,SW,215,11.0,19.0,95,0.00,,,0.00,,2013-03-12 02:32:00,
2013-03-11 22:42:00,39.0,38.0,30.17,SW,215,11.0,19.0,95,0.00,,,0.00,,2013-03-12 02:42:00,
2013-03-11 22:52:00,39.0,38.0,30.17,SW,230,9.0,20.0,96,0.00,,,0.00,,2013-03-12 02:52:00,
2013-03-11 23:02:00,39.0,38.0,30.16,South,187,11.0,19.0,96,0.00,,,0.00,,2013-03-12 03:02:00,
2013-03-11 23:12:00,39.0,38.0,30.16,South,187,11.0,19.0,96,0.00,,,0.00,,2013-03-12 03:12:00,
2013-03-11 23:22:00,40.0,39.0,30.16,SW,217,12.0,19.0,96,0.00,,,0.00,,2013-03-12 03:22:00,
2013-03-11 23:32:00,40.0,39.0,30.15,SSW,202,8.0,16.0,96,0.00,,,0.00,,2013-03-12 03:32:00,
2013-03-11 23:42:00,40.0,39.0,30.15,SSW,202,8.0,16.0,96,0.00,,,0.00,,2013-03-12 03:42:00,
2013-03-11 23:53:00,40.0,39.0,30.15,SSW,205,8.0,17.0,96,0.00,,,0.00,,2013-03-12 03:53:00,